Location: Chateh
(58.6667°N, 118.6000°W)
Time: 18:35:18
(UTC+00:00)

Gurwin Techsat 1B - Pass Details

Date: 01 December 2023
Orbit: 810 x 813 km, 98.9° (Epoch: 21 February)

Event Time Altitude Azimuth Distance (km) Brightness Sun altitude
Rises 13:08:36 0° 16° (NNE) 3,352 12.0 -23.0°
Reaches altitude 10° 13:11:11 10° 7° (N) 2,417 11.1 -22.6°
Enters shadow 13:14:17 26° 336° (NNW) 1,555 9.8 -22.2°
